Time,TemperatureF,DewpointF,PressureIn,WindDirection,WindDirectionDegrees,WindSpeedMPH,WindSpeedGustMPH,Humidity,HourlyPrecipIn,Conditions,Clouds,dailyrainin,SoftwareType,DateUTC
2013-04-30 00:00:00,51.0,50.0,30.12,SE,144,5.0,8.0,99,-99.99,,,-99.99,,2013-04-30 04:00:00,
2013-04-30 00:32:00,51.0,50.0,30.12,SE,144,5.0,8.0,99,-99.99,,,-99.99,,2013-04-30 04:32:00,
2013-04-30 00:42:00,51.0,50.0,30.12,SE,144,5.0,8.0,99,-99.99,,,-99.99,,2013-04-30 04:42:00,
2013-04-30 00:52:00,51.0,50.0,30.12,SE,144,5.0,8.0,99,-99.99,,,-99.99,,2013-04-30 04:52:00,
2013-04-30 01:00:00,51.0,50.0,30.12,ESE,122,0.0,6.0,98,-99.99,,,-99.99,,2013-04-30 05:00:00,
2013-04-30 01:31:00,51.0,50.0,30.12,ESE,122,0.0,6.0,98,-99.99,,,-99.99,,2013-04-30 05:31:00,
2013-04-30 01:42:00,51.0,50.0,30.12,ESE,122,0.0,6.0,98,-99.99,,,-99.99,,2013-04-30 05:42:00,
2013-04-30 01:51:00,51.0,50.0,30.12,ESE,122,0.0,6.0,98,-99.99,,,-99.99,,2013-04-30 05:51:00,
2013-04-30 02:00:00,51.0,50.0,30.09,East,80,0.0,5.0,98,-99.99,,,-99.99,,2013-04-30 06:00:00,
2013-04-30 02:21:00,51.0,50.0,30.09,East,80,0.0,5.0,98,-99.99,,,-99.99,,2013-04-30 06:21:00,
2013-04-30 02:32:00,51.0,50.0,30.09,East,80,0.0,5.0,98,-99.99,,,-99.99,,2013-04-30 06:32:00,
2013-04-30 02:42:00,51.0,50.0,30.09,East,80,0.0,5.0,98,-99.99,,,-99.99,,2013-04-30 06:42:00,
2013-04-30 02:52:00,51.0,50.0,30.09,East,80,0.0,5.0,98,-99.99,,,-99.99,,2013-04-30 06:52:00,
2013-04-30 03:00:00,51.0,50.0,30.09,East,94,0.0,6.0,97,-99.99,,,-99.99,,2013-04-30 07:00:00,
2013-04-30 03:21:00,51.0,50.0,30.09,East,94,0.0,6.0,97,-99.99,,,-99.99,,2013-04-30 07:21:00,
2013-04-30 03:32:00,51.0,50.0,30.09,East,94,0.0,6.0,97,-99.99,,,-99.99,,2013-04-30 07:32:00,
2013-04-30 03:42:00,51.0,50.0,30.09,East,94,0.0,6.0,97,-99.99,,,-99.99,,2013-04-30 07:42:00,
2013-04-30 03:52:00,51.0,50.0,30.09,East,94,0.0,6.0,97,-99.99,,,-99.99,,2013-04-30 07:52:00,
2013-04-30 04:00:00,51.0,51.0,30.09,NE,43,0.0,0.0,97,-99.99,,,-99.99,,2013-04-30 08:00:00,
2013-04-30 04:22:00,51.0,51.0,30.09,NE,43,0.0,0.0,97,-99.99,,,-99.99,,2013-04-30 08:22:00,
2013-04-30 04:32:00,51.0,51.0,30.09,NE,43,0.0,0.0,97,-99.99,,,-99.99,,2013-04-30 08:32:00,
2013-04-30 04:42:00,51.0,51.0,30.09,NE,43,0.0,0.0,97,-99.99,,,-99.99,,2013-04-30 08:42:00,
2013-04-30 04:52:00,51.0,51.0,30.09,NE,43,0.0,0.0,97,-99.99,,,-99.99,,2013-04-30 08:52:00,
2013-04-30 05:00:00,51.0,51.0,30.12,NNW,344,0.0,0.0,98,-99.99,,,-99.99,,2013-04-30 09:00:00,
2013-04-30 05:22:00,51.0,51.0,30.12,NNW,344,0.0,0.0,98,-99.99,,,-99.99,,2013-04-30 09:22:00,
2013-04-30 05:33:00,51.0,51.0,30.12,NNW,344,0.0,0.0,98,-99.99,,,-99.99,,2013-04-30 09:33:00,
2013-04-30 05:43:00,51.0,51.0,30.12,NNW,344,0.0,0.0,98,-99.99,,,-99.99,,2013-04-30 09:43:00,
2013-04-30 05:52:00,51.0,51.0,30.12,NNW,344,0.0,0.0,98,-99.99,,,-99.99,,2013-04-30 09:52:00,
2013-04-30 06:00:00,51.0,50.0,30.12,North,355,0.0,5.0,97,-99.99,,,-99.99,,2013-04-30 10:00:00,
2013-04-30 06:22:00,51.0,50.0,30.12,North,355,0.0,5.0,97,-99.99,,,-99.99,,2013-04-30 10:22:00,
2013-04-30 06:32:00,51.0,50.0,30.12,North,355,0.0,5.0,97,-99.99,,,-99.99,,2013-04-30 10:32:00,
2013-04-30 06:41:00,51.0,50.0,30.12,North,355,0.0,5.0,97,-99.99,,,-99.99,,2013-04-30 10:41:00,
2013-04-30 06:52:00,51.0,50.0,30.12,North,355,0.0,5.0,97,-99.99,,,-99.99,,2013-04-30 10:52:00,
2013-04-30 07:00:00,51.0,50.0,30.15,ENE,64,0.0,5.0,95,-99.99,,,-99.99,,2013-04-30 11:00:00,
2013-04-30 07:21:00,51.0,50.0,30.15,ENE,64,0.0,5.0,95,-99.99,,,-99.99,,2013-04-30 11:21:00,
2013-04-30 07:32:00,51.0,50.0,30.15,ENE,64,0.0,5.0,95,-99.99,,,-99.99,,2013-04-30 11:32:00,
2013-04-30 07:42:00,51.0,50.0,30.15,ENE,64,0.0,5.0,95,-99.99,,,-99.99,,2013-04-30 11:42:00,
2013-04-30 07:52:00,51.0,50.0,30.15,ENE,64,0.0,5.0,95,-99.99,,,-99.99,,2013-04-30 11:52:00,
2013-04-30 08:00:00,54.0,49.0,30.18,ENE,61,0.0,5.0,81,-99.99,,,-99.99,,2013-04-30 12:00:00,
2013-04-30 08:22:00,54.0,49.0,30.18,ENE,61,0.0,5.0,81,-99.99,,,-99.99,,2013-04-30 12:22:00,
2013-04-30 08:31:00,54.0,49.0,30.18,ENE,61,0.0,5.0,81,-99.99,,,-99.99,,2013-04-30 12:31:00,
2013-04-30 08:42:00,54.0,49.0,30.18,ENE,61,0.0,5.0,81,-99.99,,,-99.99,,2013-04-30 12:42:00,
2013-04-30 08:51:00,54.0,49.0,30.18,ENE,61,0.0,5.0,81,-99.99,,,-99.99,,2013-04-30 12:51:00,
2013-04-30 09:00:00,60.0,51.0,30.18,ESE,120,1.0,7.0,72,-99.99,,,-99.99,,2013-04-30 13:00:00,
2013-04-30 09:21:00,60.0,51.0,30.18,ESE,120,1.0,7.0,72,-99.99,,,-99.99,,2013-04-30 13:21:00,
2013-04-30 09:31:00,60.0,51.0,30.18,ESE,120,1.0,7.0,72,-99.99,,,-99.99,,2013-04-30 13:31:00,
2013-04-30 09:41:00,60.0,51.0,30.18,ESE,120,1.0,7.0,72,-99.99,,,-99.99,,2013-04-30 13:41:00,
2013-04-30 09:52:00,60.0,51.0,30.18,ESE,120,1.0,7.0,72,-99.99,,,-99.99,,2013-04-30 13:52:00,
2013-04-30 10:00:00,60.0,50.0,30.21,SE,125,7.0,12.0,69,-99.99,,,-99.99,,2013-04-30 14:00:00,
2013-04-30 10:31:00,60.0,50.0,30.21,SE,125,7.0,12.0,69,-99.99,,,-99.99,,2013-04-30 14:31:00,
2013-04-30 10:41:00,60.0,50.0,30.21,SE,125,7.0,12.0,69,-99.99,,,-99.99,,2013-04-30 14:41:00,
2013-04-30 10:52:00,60.0,50.0,30.21,SE,125,7.0,12.0,69,-99.99,,,-99.99,,2013-04-30 14:52:00,
2013-04-30 11:00:00,62.0,51.0,30.21,ESE,113,0.0,13.0,66,-99.99,,,-99.99,,2013-04-30 15:00:00,
2013-04-30 11:21:00,62.0,51.0,30.21,ESE,113,0.0,13.0,66,-99.99,,,-99.99,,2013-04-30 15:21:00,
2013-04-30 11:32:00,62.0,51.0,30.21,ESE,113,0.0,13.0,66,-99.99,,,-99.99,,2013-04-30 15:32:00,
2013-04-30 11:42:00,62.0,51.0,30.21,ESE,113,0.0,13.0,66,-99.99,,,-99.99,,2013-04-30 15:42:00,
2013-04-30 11:53:00,62.0,51.0,30.21,ESE,113,0.0,13.0,66,-99.99,,,-99.99,,2013-04-30 15:53:00,
2013-04-30 12:00:00,62.0,52.0,30.21,East,89,1.0,12.0,70,-99.99,,,-99.99,,2013-04-30 16:00:00,
2013-04-30 12:23:00,62.0,52.0,30.21,East,89,1.0,12.0,70,-99.99,,,-99.99,,2013-04-30 16:23:00,
2013-04-30 12:33:00,62.0,52.0,30.21,East,89,1.0,12.0,70,-99.99,,,-99.99,,2013-04-30 16:33:00,
2013-04-30 12:42:00,62.0,52.0,30.21,East,89,1.0,12.0,70,-99.99,,,-99.99,,2013-04-30 16:42:00,
2013-04-30 12:52:00,62.0,52.0,30.21,East,89,1.0,12.0,70,-99.99,,,-99.99,,2013-04-30 16:52:00,
2013-04-30 13:00:00,63.0,54.0,30.21,East,83,2.0,16.0,72,-99.99,,,-99.99,,2013-04-30 17:00:00,
2013-04-30 13:32:00,63.0,54.0,30.21,East,83,2.0,16.0,72,-99.99,,,-99.99,,2013-04-30 17:32:00,
2013-04-30 13:42:00,63.0,54.0,30.21,East,83,2.0,16.0,72,-99.99,,,-99.99,,2013-04-30 17:42:00,
2013-04-30 13:53:00,63.0,54.0,30.21,East,83,2.0,16.0,72,-99.99,,,-99.99,,2013-04-30 17:53:00,
2013-04-30 14:00:00,64.0,46.0,30.21,East,93,4.0,16.0,53,-99.99,,,-99.99,,2013-04-30 18:00:00,
2013-04-30 14:22:00,64.0,46.0,30.21,East,93,4.0,16.0,53,-99.99,,,-99.99,,2013-04-30 18:22:00,
2013-04-30 14:32:00,64.0,46.0,30.21,East,93,4.0,16.0,53,-99.99,,,-99.99,,2013-04-30 18:32:00,
2013-04-30 14:42:00,64.0,46.0,30.21,East,93,4.0,16.0,53,-99.99,,,-99.99,,2013-04-30 18:42:00,
2013-04-30 14:52:00,64.0,46.0,30.21,East,93,4.0,16.0,53,-99.99,,,-99.99,,2013-04-30 18:52:00,
2013-04-30 15:00:00,64.0,38.0,30.21,ESE,118,5.0,11.0,39,-99.99,,,-99.99,,2013-04-30 19:00:00,
2013-04-30 15:32:00,64.0,38.0,30.21,ESE,118,5.0,11.0,39,-99.99,,,-99.99,,2013-04-30 19:32:00,
2013-04-30 15:42:00,64.0,38.0,30.21,ESE,118,5.0,11.0,39,-99.99,,,-99.99,,2013-04-30 19:42:00,
2013-04-30 15:52:00,64.0,38.0,30.21,ESE,118,5.0,11.0,39,-99.99,,,-99.99,,2013-04-30 19:52:00,
2013-04-30 16:00:00,62.0,43.0,30.21,SE,124,5.0,15.0,50,-99.99,,,-99.99,,2013-04-30 20:00:00,
2013-04-30 16:22:00,62.0,43.0,30.21,SE,124,5.0,15.0,50,-99.99,,,-99.99,,2013-04-30 20:22:00,
2013-04-30 16:32:00,62.0,43.0,30.21,SE,124,5.0,15.0,50,-99.99,,,-99.99,,2013-04-30 20:32:00,
2013-04-30 16:42:00,62.0,43.0,30.21,SE,124,5.0,15.0,50,-99.99,,,-99.99,,2013-04-30 20:42:00,
2013-04-30 16:52:00,62.0,43.0,30.21,SE,124,5.0,15.0,50,-99.99,,,-99.99,,2013-04-30 20:52:00,
2013-04-30 17:00:00,61.0,43.0,30.24,East,80,0.0,15.0,51,-99.99,,,-99.99,,2013-04-30 21:00:00,
2013-04-30 17:32:00,61.0,43.0,30.24,East,80,0.0,15.0,51,-99.99,,,-99.99,,2013-04-30 21:32:00,
2013-04-30 17:42:00,61.0,43.0,30.24,East,80,0.0,15.0,51,-99.99,,,-99.99,,2013-04-30 21:42:00,
2013-04-30 17:53:00,61.0,43.0,30.24,East,80,0.0,15.0,51,-99.99,,,-99.99,,2013-04-30 21:53:00,
2013-04-30 18:00:00,61.0,38.0,30.24,ESE,108,1.0,10.0,43,-99.99,,,-99.99,,2013-04-30 22:00:00,
2013-04-30 18:33:00,61.0,38.0,30.24,ESE,108,1.0,10.0,43,-99.99,,,-99.99,,2013-04-30 22:33:00,
2013-04-30 18:42:00,61.0,38.0,30.24,ESE,108,1.0,10.0,43,-99.99,,,-99.99,,2013-04-30 22:42:00,
2013-04-30 18:53:00,61.0,38.0,30.24,ESE,108,1.0,10.0,43,-99.99,,,-99.99,,2013-04-30 22:53:00,
2013-04-30 19:00:00,58.0,34.0,30.24,SSE,168,0.0,10.0,41,-99.99,,,-99.99,,2013-04-30 23:00:00,
2013-04-30 19:22:00,58.0,34.0,30.24,SSE,168,0.0,10.0,41,-99.99,,,-99.99,,2013-04-30 23:22:00,
2013-04-30 19:32:00,58.0,34.0,30.24,SSE,168,0.0,10.0,41,-99.99,,,-99.99,,2013-04-30 23:32:00,
2013-04-30 19:42:00,58.0,34.0,30.24,SSE,168,0.0,10.0,41,-99.99,,,-99.99,,2013-04-30 23:42:00,
2013-04-30 19:52:00,58.0,34.0,30.24,SSE,168,0.0,10.0,41,-99.99,,,-99.99,,2013-04-30 23:52:00,
2013-04-30 20:00:00,52.0,37.0,30.24,SSE,147,0.0,6.0,56,-99.99,,,-99.99,,2013-05-01 00:00:00,
2013-04-30 20:22:00,52.0,37.0,30.24,SSE,147,0.0,6.0,56,-99.99,,,-99.99,,2013-05-01 00:22:00,
2013-04-30 20:32:00,52.0,37.0,30.24,SSE,147,0.0,6.0,56,-99.99,,,-99.99,,2013-05-01 00:32:00,
2013-04-30 20:42:00,52.0,37.0,30.24,SSE,147,0.0,6.0,56,-99.99,,,-99.99,,2013-05-01 00:42:00,
2013-04-30 20:52:00,52.0,37.0,30.24,SSE,147,0.0,6.0,56,-99.99,,,-99.99,,2013-05-01 00:52:00,
2013-04-30 21:00:00,48.0,38.0,30.24,West,281,0.0,0.0,69,-99.99,,,-99.99,,2013-05-01 01:00:00,
2013-04-30 21:32:00,48.0,38.0,30.24,West,281,0.0,0.0,69,-99.99,,,-99.99,,2013-05-01 01:32:00,
2013-04-30 21:42:00,48.0,38.0,30.24,West,281,0.0,0.0,69,-99.99,,,-99.99,,2013-05-01 01:42:00,
2013-04-30 21:52:00,48.0,38.0,30.24,West,281,0.0,0.0,69,-99.99,,,-99.99,,2013-05-01 01:52:00,
2013-04-30 22:00:00,44.0,39.0,30.24,West,281,0.0,0.0,82,-99.99,,,-99.99,,2013-05-01 02:00:00,
2013-04-30 22:32:00,44.0,39.0,30.24,West,281,0.0,0.0,82,-99.99,,,-99.99,,2013-05-01 02:32:00,
2013-04-30 22:42:00,44.0,39.0,30.24,West,281,0.0,0.0,82,-99.99,,,-99.99,,2013-05-01 02:42:00,
2013-04-30 22:52:00,44.0,39.0,30.24,West,281,0.0,0.0,82,-99.99,,,-99.99,,2013-05-01 02:52:00,
2013-04-30 23:00:00,42.0,39.0,30.21,NNW,330,0.0,0.0,88,-99.99,,,-99.99,,2013-05-01 03:00:00,
2013-04-30 23:33:00,42.0,39.0,30.21,NNW,330,0.0,0.0,88,-99.99,,,-99.99,,2013-05-01 03:33:00,
2013-04-30 23:43:00,42.0,39.0,30.21,NNW,330,0.0,0.0,88,-99.99,,,-99.99,,2013-05-01 03:43:00,
2013-04-30 23:53:00,42.0,39.0,30.21,NNW,330,0.0,0.0,88,-99.99,,,-99.99,,2013-05-01 03:53:00,